Weather History for LIMC - December, 2012

Change the Weather History Date:

Sunday, December 16, 2012

  Actual Average Record
Temperature  
Mean Temperature 32 °F -  
Max Temperature 37 °F 43 °F 55 °F (2000)
Min Temperature 26 °F 25 °F 12 °F (2010)
Degree Days  
Heating Degree Days 34    
Moisture  
Dew Point 32 °F    
Average Humidity 100    
Maximum Humidity 100    
Minimum Humidity 100    
Precipitation  
Precipitation 0.00 in 0.08 in - ()
Sea Level Pressure  
Sea Level Pressure 29.95 in    
Wind  
Wind Speed 2 mph ()    
Max Wind Speed 5 mph    
Max Gust Speed -    
Visibility 1.0 miles    
Events Fog    
Averages and records for this station are not official NWS values.
T = Trace of Precipitation, MM = Missing Value Source: Averaged Metar Reports

Daily Weather History Graph

Daily Weather History Graph

Search for Another Location

Airport or City:

Trip Planner

Search our weather history database for the weather conditions in past years. The results will help you decide how hot, cold, wet, or windy it might be!

Date:

Astronomy

Dec. 16, 2012 Rise Set
Actual Time 7:59 AM CET 4:42 PM CET
Civil Twilight 7:25 AM CET 5:16 PM CET
Nautical Twilight 6:47 AM CET 5:54 PM CET
Astronomical Twilight 6:11 AM CET 6:30 PM CET
Moon 10:14 AM CET (12/16) 8:46 PM CET (12/16)
Length of Visible Light 9h 50m
Length of Day
8h 42m
Waxing Crescent, 13% of the Moon is Illuminated
Dec 16
Waxing Crescent
Dec 20
First Quarter
Dec 28
Full
Jan 5
Last Quarter
Jan 11
New

Hourly Weather History & Observations

Time (CET) Temp. Windchill Dew Point Humidity Pressure Visibility Wind Dir Wind Speed Gust Speed Precip Events Conditions
12:20 AM 33.8 °F - 33.8 °F 100% 29.95 in 0.2 mi NNW 2.3 mph - N/A Fog Fog
12:50 AM 33.8 °F - 33.8 °F 100% 29.95 in 0.2 mi North 2.3 mph - N/A Fog Fog
1:20 AM 33.8 °F 30.8 °F 33.8 °F 100% 29.95 in 0.2 mi NNW 3.5 mph - N/A Fog Fog
1:50 AM 33.8 °F 29.6 °F 33.8 °F 100% 29.95 in 0.2 mi North 4.6 mph - N/A Fog Fog
2:20 AM 33.8 °F 30.8 °F 33.8 °F 100% 29.95 in 0.2 mi NNW 3.5 mph - N/A Fog Fog
2:50 AM 33.8 °F 30.8 °F 33.8 °F 100% 29.92 in 0.2 mi North 3.5 mph - N/A Fog Fog
3:20 AM 33.8 °F - 33.8 °F 100% 29.95 in 1.2 mi North 2.3 mph - N/A   Mist
3:50 AM 33.8 °F - 33.8 °F 100% 29.95 in 2.5 mi North 2.3 mph - N/A   Mist
4:20 AM 32.0 °F - 32.0 °F 100% 29.92 in 2.5 mi North 1.2 mph - N/A   Mist
4:50 AM 30.2 °F - 30.2 °F 100% 29.95 in 2.5 mi Variable 2.3 mph - N/A   Mist
5:20 AM 30.2 °F - 30.2 °F 100% 29.95 in 2.5 mi Variable 1.2 mph - N/A   Mist
5:50 AM 30.2 °F - 30.2 °F 100% 29.95 in 0.2 mi SSE 2.3 mph - N/A Fog Light Freezing Fog
6:20 AM 30.2 °F - 30.2 °F 100% 29.95 in 0.1 mi Calm Calm - N/A Fog Light Freezing Fog
6:50 AM 28.4 °F - 28.4 °F 100% 29.95 in 0.1 mi Calm Calm - N/A Fog Light Freezing Fog
7:20 AM 28.4 °F - 28.4 °F 100% 29.95 in 0.1 mi Variable 1.2 mph - N/A Fog Light Freezing Fog
7:50 AM 28.4 °F - 28.4 °F 100% 29.98 in 0.3 mi Variable 1.2 mph - N/A Fog Light Freezing Fog
8:20 AM 26.6 °F - 26.6 °F 100% 29.98 in 0.6 mi Calm Calm - N/A Fog Patches of Fog
8:50 AM 28.4 °F - 28.4 °F 100% 29.98 in 0.1 mi Variable 1.2 mph - N/A Fog Patches of Fog
9:20 AM 28.4 °F - 28.4 °F 100% 29.98 in 0.3 mi Variable 1.2 mph - N/A Fog Light Freezing Fog
9:50 AM 28.4 °F - 28.4 °F 100% 29.98 in 6.2 mi North 2.3 mph - N/A Fog Patches of Fog
10:20 AM 30.2 °F 26.7 °F 30.2 °F 100% 29.98 in 6.2 mi North 3.5 mph - N/A Fog Shallow Fog
10:50 AM 32.0 °F - 32.0 °F 100% 29.98 in 6.2 mi Calm Calm - N/A Fog Shallow Fog
11:20 AM 35.6 °F - 35.6 °F 100% 29.98 in 6.2 mi Variable 1.2 mph - N/A Fog Shallow Fog
11:50 AM 35.6 °F - 35.6 °F 100% 29.98 in 1.9 mi Variable 2.3 mph - N/A   Mostly Cloudy
12:20 PM 37.4 °F - 37.4 °F 100% 29.98 in 1.9 mi Variable 1.2 mph - N/A   Mostly Cloudy
12:50 PM 35.6 °F - 35.6 °F 100% 29.95 in 1.9 mi SE 2.3 mph - N/A Fog Patches of Fog
1:20 PM 35.6 °F - 35.6 °F 100% 29.95 in 0.3 mi Variable 2.3 mph - N/A Fog Fog
1:50 PM 33.8 °F - 33.8 °F 100% 29.95 in 0.0 mi Variable 2.3 mph - N/A Fog Fog
2:20 PM 33.8 °F - 33.8 °F 100% 29.92 in 0.0 mi South 1.2 mph - N/A Fog Fog
2:50 PM 33.8 °F - 33.8 °F 100% 29.92 in 0.0 mi Calm Calm - N/A Fog Fog
3:20 PM 33.8 °F - 33.8 °F 100% 29.92 in 0.0 mi Calm Calm - N/A Fog Fog
3:50 PM 33.8 °F - 33.8 °F 100% 29.95 in 0.0 mi SSE 1.2 mph - N/A Fog Fog
4:20 PM 32.0 °F - 32.0 °F 100% 29.95 in 0.0 mi Calm Calm - N/A Fog Fog
4:50 PM 32.0 °F - 32.0 °F 100% 29.95 in 0.0 mi Variable 1.2 mph - N/A Fog Fog
5:20 PM 32.0 °F - 32.0 °F 100% 29.95 in 0.0 mi Calm Calm - N/A Fog Fog
5:50 PM 32.0 °F - 32.0 °F 100% 29.92 in 0.0 mi Variable 1.2 mph - N/A Fog Fog
6:20 PM 32.0 °F - 32.0 °F 100% 29.92 in 0.0 mi Calm Calm - N/A Fog Light Freezing Fog
6:50 PM 32.0 °F - 32.0 °F 100% 29.92 in 0.0 mi Variable 1.2 mph - N/A Fog Light Freezing Fog
7:20 PM 30.2 °F - 30.2 °F 100% 29.92 in 0.0 mi Variable 1.2 mph - N/A Fog Light Freezing Fog
7:50 PM 30.2 °F - 30.2 °F 100% 29.95 in 0.1 mi Calm Calm - N/A Fog Light Freezing Fog
8:20 PM 30.2 °F - 30.2 °F 100% 29.95 in 0.1 mi Calm Calm - N/A Fog Light Freezing Fog
8:50 PM 30.2 °F - 30.2 °F 100% 29.95 in 0.1 mi Variable 1.2 mph - N/A Fog Light Freezing Fog
9:20 PM 30.2 °F - 30.2 °F 100% 29.92 in 0.1 mi ESE 1.2 mph - N/A Fog Light Freezing Fog
9:50 PM 30.2 °F - 30.2 °F 100% 29.92 in 0.1 mi Calm Calm - N/A Fog Light Freezing Fog
10:20 PM 30.2 °F - 30.2 °F 100% 29.92 in 0.1 mi Calm Calm - N/A Fog Light Freezing Fog
10:50 PM 30.2 °F - 30.2 °F 100% 29.92 in 0.1 mi Variable 2.3 mph - N/A Fog Light Freezing Fog
11:20 PM 30.2 °F - 30.2 °F 100% 29.92 in 0.1 mi Calm Calm - N/A Fog Light Freezing Fog
11:50 PM 30.2 °F - 30.2 °F 100% 29.92 in 0.1 mi Variable 1.2 mph - N/A Fog Light Freezing Fog